Miscellaneous Local Product
Issued by NWS Hastings, NE

Home | Current Version | Previous Version | Graphics & Text | Print | Product List | Glossary On
Versions: 1 2 3 4 5 6 7 8 9 10 11 12 13 14 15 16 17 18 19 20 21 22 23 24 25 26 27 28 29 30 31 32 33 34 35 36 37 38 39 40 41 42 43 44 45 46 47 48 49 50
000
AXUS43 KGID 170002
MISGRI

GID CWA HOURLY WEATHER ROUNDUP
NATIONAL WEATHER SERVICE HASTINGS NE
700 PM CDT TUE SEP 16 2014

NOTE: "FAIR" INDICATES FEW OR NO CLOUDS BELOW 12,000 FEET WITH NO
SIGNIFICANT WEATHER AND/OR OBSTRUCTIONS TO VISIBILITY.

...SOUTH CENTRAL NEBRASKA...

CITY           SKY/WX    TMP DP  RH WIND       PRES   REMARKS
GRAND ISLAND   CLOUDY    66  54  65 S8        30.02S
HASTINGS       CLOUDY    65  52  62 S7        30.01F
KEARNEY        MOCLDY    64  55  72 SE7       30.01F
ORD            PTCLDY    66  55  67 S12       29.98F
YORK           CLOUDY    64  55  72 SW5       30.02S
LEXINGTON      PTCLDY    69  60  71 SE8       29.98F
HOLDREGE       PTCLDY    66  57  71 SE7       29.99F
HEBRON         CLOUDY    66  51  57 CALM      30.02S

...NEBRASKA PANHANDLE...

CITY           SKY/WX    TMP DP  RH WIND       PRES   REMARKS
CHADRON        SUNNY     80  50  34 SE7       29.93F
ALLIANCE       SUNNY     79  44  28 NE7       29.98F
SCOTTSBLUFF    SUNNY     84  39  20 S7        29.98F
SIDNEY         SUNNY     83  39  21 NE9       30.04F

...WESTERN AND NORTH CENTRAL NEBRASKA...

CITY           SKY/WX    TMP DP  RH WIND       PRES   REMARKS
VALENTINE      CLEAR     78  54  43 N3        29.94S
ONEILL         PTCLDY    67  58  72 S8        29.96F
BROKEN BOW     CLEAR     68  58  70 SE10      29.98F
IMPERIAL       CLEAR     83  51  33 N7        29.98R
NORTH PLATTE   PTCLDY    73  60  63 SE6       29.96F
MCCOOK         CLEAR     76  59  55 E13       29.95F

...EASTERN NEBRASKA...

CITY           SKY/WX    TMP DP  RH WIND       PRES   REMARKS
NORFOLK        CLOUDY    66  51  58 S7        29.99F
SO SIOUX CITY  PTCLDY    64  50  60 S5        30.01F
TEKAMAH        PTCLDY    66  51  58 SE6       30.02F
ALBION         CLOUDY    66  54  65 S9        30.00S
OMAHA EPPLEY   PTCLDY    66  48  52 S9        30.03F
OFFUTT AFB     MOCLDY    63  57  81 E6        30.02F
MILLARD        CLOUDY    66  52  59 SE7       30.02F
LINCOLN        CLOUDY    69  49  48 SE6       30.02S
NEBRASKA CITY  PTCLDY    65  44  47 SE5       30.02F
BEATRICE       CLOUDY    68  48  49 S5        30.01F
FALLS CITY     PTCLDY    66  52  60 SE5       30.02F

...NORTHERN KANSAS...

CITY           SKY/WX    TMP DP  RH WIND       PRES   REMARKS
GOODLAND       CLEAR     83  54  36 S9        29.99R
HILL CITY      CLEAR     80  62  54 SE8       29.96F
NORTON         CLEAR     73  55  53 SE6       29.96S
PHILLIPSBURG   CLEAR     73  57  56 E9        29.98S
SMITH CENTER   CLEAR     70  57  64 SE8       30.00F
BELOIT         CLEAR     72  55  56 E5        29.98F
HAYS           CLEAR     81  63  54 S10       29.96F
RUSSELL        CLEAR     75  61  61 SE12      29.96F
CONCORDIA      CLEAR     66  57  72 SE6       30.00F
SALINA         CLEAR     75  61  61 S6        30.00S
TOPEKA         CLEAR     71  54  54 E7        30.02F



USA.gov is the U.S. government's official web portal to all federal, state and local government web resources and services.